CST,Max TemperatureF,Mean TemperatureF,Min TemperatureF,Max Dew PointF,MeanDew PointF,Min DewpointF,Max Humidity, Mean Humidity, Min Humidity, Max Sea Level PressureIn, Mean Sea Level PressureIn, Min Sea Level PressureIn, Max VisibilityMiles, Mean VisibilityMiles, Min VisibilityMiles, Max Wind SpeedMPH, Mean Wind SpeedMPH, Max Gust SpeedMPH,PrecipitationIn, CloudCover, Events, WindDirDegrees
2012-11-1,35,32,28,30,25,21,81,77,69,30.15,30.10,30.03,10,10,7,20,14,24,0.00,5,,353
2012-11-2,33,30,28,25,24,21,80,77,65,30.20,30.17,30.14,10,10,10,13,8,16,0.00,3,Snow,68
2012-11-3,39,32,24,30,26,21,86,82,70,30.26,30.22,30.19,10,9,2,12,5,,0.01,3,Snow,74
2012-11-4,35,29,23,28,25,19,87,81,75,30.25,30.23,30.19,10,10,10,14,7,,0.00,3,,77
2012-11-5,44,37,30,34,29,27,87,76,57,30.25,30.03,29.66,10,9,2,20,8,22,0.13,5,Rain-Snow,166
2012-11-6,37,35,33,34,31,28,87,83,81,29.98,29.78,29.60,10,8,1,20,12,25,0.05,4,Rain-Snow,299
2012-11-7,41,38,35,34,33,30,87,81,75,30.06,29.97,29.80,10,10,10,14,6,18,0.01,3,Rain,183
2012-11-8,42,36,30,36,32,25,87,81,75,30.21,29.94,29.70,10,10,4,22,13,29,0.05,4,Rain,322
2012-11-9,30,28,26,25,21,18,86,75,64,30.24,30.18,30.07,10,10,10,22,14,28,0.00,6,,43
2012-11-10,33,30,28,28,25,18,87,81,64,30.06,29.77,29.47,10,5,2,22,17,29,0.04,8,Snow,73
2012-11-11,32,26,19,27,19,14,86,81,74,29.71,29.61,29.45,10,8,2,10,5,,0.03,7,Snow,261
2012-11-12,24,20,15,19,15,10,86,81,73,30.12,29.90,29.70,10,8,2,10,6,,0.00,5,Snow,267
2012-11-13,24,17,10,18,14,7,86,80,73,30.24,30.18,30.11,10,10,7,7,3,,0.00,3,,208
2012-11-14,37,24,10,30,21,7,87,82,75,30.23,30.10,29.94,10,8,7,15,2,18,0.00,1,,179
2012-11-15,35,24,12,30,16,9,86,75,59,30.43,30.28,29.96,10,10,10,14,9,21,0.00,0,,267
2012-11-16,39,26,14,21,16,9,79,62,42,30.42,30.25,30.09,10,10,10,18,10,23,0.00,0,,172
2012-11-17,39,34,28,34,27,19,87,77,60,30.09,30.07,30.04,10,9,7,12,6,,0.00,0,,166
2012-11-18,50,40,30,39,33,27,87,77,66,30.05,29.98,29.91,10,9,5,9,5,,0.00,1,,131
2012-11-19,44,36,28,36,32,19,87,81,70,30.13,29.99,29.88,10,8,0,12,6,16,0.00,0,Thunderstorm,245
2012-11-20,46,34,21,34,25,18,86,75,53,30.14,30.00,29.84,10,7,0,15,5,,0.00,1,Fog,176
2012-11-21,48,38,28,37,31,25,87,80,66,29.86,29.76,29.53,10,9,4,9,5,,0.00,0,,113
2012-11-22,35,27,17,30,22,12,87,82,74,30.14,29.78,29.49,10,6,1,23,10,31,0.00,6,Snow,311
2012-11-23,19,12,5,12,8,0,79,76,68,30.41,30.34,30.15,10,8,2,20,14,26,0.00,5,Snow,305
2012-11-24,21,11,1,18,9,-2,86,82,73,30.32,29.97,29.76,10,8,0,17,6,23,0.01,3,Snow,180
2012-11-25,23,12,0,18,8,-6,86,77,67,30.24,29.97,29.82,10,8,1,18,9,24,0.00,4,Snow,291
2012-11-26,24,8,-7,18,1,-13,85,77,71,30.35,30.25,30.08,10,9,1,14,8,16,0.00,2,Snow,232
2012-11-27,26,14,1,19,7,-2,86,75,67,30.24,30.12,30.05,10,9,2,12,8,,0.00,3,Snow,299
2012-11-28,28,17,6,23,11,0,86,79,72,30.24,30.13,30.00,10,9,5,17,7,21,0.00,3,Snow,240
2012-11-29,15,12,8,9,7,1,85,75,68,30.28,30.24,30.20,10,10,3,18,11,21,0.00,4,Snow,57
2012-11-30,32,24,15,27,17,9,86,81,73,30.24,30.08,29.86,10,8,5,16,11,17,0.00,4,,128